Погода в Хатынгнахе

Россия / Республика Саха (Якутия)     67°29′35″N   152°36′12″E
темп.,
°C
ветер,
м/с
пор.,
м/с
влажн.,
%
обл.,
%
осадки,
мм/ч
давл.,
гПа
погр.,
м
24 января, вс
вс2423:00−35сз4697100 0.1 1027188
02:00−35сз4697100 0.1 1027203
05:00−35зсз3697100 0.1 1028195
08:00−34зсз3597100 0.1 1028215
11:00−33зсз3597100 0.1 1029223
14:00−33зсз3596100 0.1 1028243
17:00−33зсз3597100 0.1 1030244
20:00−34зсз3696100 0.1 1031280
25 января, пн
пн2523:00−34з3697100 0.1 1032283
02:00−34зсз4696100 0.1 1033296
05:00−34зсз3696100 0.1 1035292
08:00−33з3696100 0.1 1036324
11:00−33з3697100 0.1 1037334
14:00−33з3696100 0.1 1039275
17:00−35зсз339799 0.1 104042
20:00−37з339584 0.0 104224
26 января, вт
вт2623:00−38з239148 0.0 104418
02:00−39зсз239416 0.0 104519
05:00−40зсз229521 0.0 104618
08:00−40сз229332 0.0 104818
11:00−40сз229436 0.0 104818
14:00−39с129548 0.0 104818
17:00−38св229568 0.0 104820
20:00−38св2394100 0.0 104827
27 января, ср
ср2723:00−38св349499 0.0 104753
02:00−38св459694 0.0 104770
05:00−37св489597 0.0 1046217
08:00−36св5894100 0.0 1044290
11:00−35ссв5994100 0.0 1043300
14:00−35ссв6993100 0.0 1040354
17:00−36с4895100 0.0 1039239
20:00−36с5996100 0.0 1037281
28 января, чт
чт2823:00−35с4696100 0.0 1035322
02:00−33с4595100 0.0 1033340
05:00−33с3497100 0.1 1032335
08:00−33сз2399100 0.7 1031248
11:00−32зсз3498100 1.0 1030255
14:00−31зсз3496100 0.2 1029334
17:00−30зсз3598100 0.4 1028301
20:00−30зсз4696100 0.2 1028267